Location: Boca do Mato
(22.9085°S, 43.2930°W)
Time: 11:30:29
(UTC+00:00)

Cosmos 2266 Rocket - Pass Details

Date: 05 November 2020
Orbit: 935 x 1007 km, 82.9° (Epoch: 28 November)

Event Time Altitude Azimuth Distance (km) Brightness Sun altitude
Rises 06:14:12 0° 163° (SSE) 3,643 7.7 -24.2°
Reaches altitude 10° 06:17:33 10° 145° (SE) 2,680 7.2 -23.6°
Maximum altitude 06:21:42 19° 101° (ESE) 2,093 6.5 -22.7°
Drops below altitude 10° 06:25:48 10° 58° (ENE) 2,645 6.6 -21.9°
Sets 06:29:03 0° 40° (NE) 3,579 7.1 -21.3°
